x

Gulf Of Maine - 78 Nm East Of Portsmouth, Nh (44005) Wave Buoy

10:50 - Wed 23rd Jul 2014 All times are EDT. -4 hours from GMT.

  • Sig Wave height 5.9ft
  • Peak Period 6s
  • Average Period 5s
  • Wind
    20mph, 22mph gusts
  • Sea Temp 67°f
  • Air Temp 70°f
  • Sea Pressure 1007.1mb
  • Gulf Of Maine - 78 Nm East Of Portsmouth, Nh
  • Gulf Of Maine - 78 Nm East Of Portsmouth, Nh

More Historic Weather Station data

Upgrade to MSW Pro to gain access to the past 30 days of data for over 8000 Wavebouys and Weather Stations around the globe.

Join Pro

Comparision Forecast

View Surf forecast
   
mer. 07/23 10:50 6ft 6s 5s 20 22 mph 1007.1mb 67f 70f
9:50 6ft 6s 5s 22 31 mph 1007.4mb 67f 71f
8:50 5.5ft 6s 5s 20 25 mph 1006.6mb 67f 70f
7:50 5.5ft 6s 5s 22 27 mph 1006.5mb 67f 71f
6:50 5.5ft 6s 5s 22 27 mph 1006.2mb 67f 71f
5:50 5ft 5s 5s 22 25 mph 1006.4mb 68f 71f
4:50 5ft 6s 5s 20 25 mph 1006.9mb 68f 70f
3:50 4.5ft 6s 4s 20 25 mph 1007.4mb 68f 70f
2:50 4.5ft 5s 4s 20 25 mph 1007.9mb 68f 70f
1:50 4.5ft 5s 5s 20 22 mph 1008.7mb 67f 69f
12:50 4.5ft 6s 4s 20 22 mph 1009.3mb 67f 69f
11:50 4ft 5s 5s 18 22 mph 1009.8mb 67f 69f
10:50 3.5ft 5s 4s 18 22 mph 1010.4mb 67f 69f
9:50 4ft 5s 4s 18 22 mph 1010.9mb 67f 68f
8:50 4ft 5s 5s 18 20 mph 1011mb 67f 68f
7:50 4ft 5s 5s 18 20 mph 1011.4mb 66f 68f
6:50 4ft 5s 4s 18 20 mph 1011.6mb 67f 69f
5:50 4ft 5s 5s 18 22 mph 1011.6mb 66f 69f
4:50 3.5ft 7s 4s 16 18 mph 1012mb 67f 69f
3:50 3.5ft 7s 4s 16 18 mph 1012.2mb 67f 69f
2:50 3.5ft 8s 5s 16 18 mph 1012.7mb 65f 68f
1:50 3ft 5s 4s 16 18 mph 1013.2mb 65f 68f
12:50 3.5ft 8s 4s 16 18 mph 1013.4mb 65f 68f
mar. 07/22 11:50 3ft 8s 4s 16 18 mph 1014mb 65f 68f
10:50 3ft 4s 4s 16 18 mph 1014.7mb 65f 68f
9:50 3ft 8s 4s 16 18 mph 1014.9mb 65f 68f
8:50 3ft 4s 4s 16 18 mph 1015.1mb 66f 67f
7:50 3ft 8s 4s 16 18 mph 1015.1mb 66f 68f
6:50 3ft 7s 4s 16 18 mph 1015.5mb 66f 68f
5:50 3.5ft 7s 5s 16 18 mph 1015.9mb 66f 68f
4:50 3.5ft 7s 5s 13 16 mph 1016.8mb 67f 67f
3:50 2.5ft 7s 5s 16 18 mph 1017.4mb 67f 67f
2:50 3ft 7s 6s 13
mph
1018.1mb 67f 67f
1:50 2.5ft 7s 5s 13 16 mph 1018.3mb 66f 67f
12:50 2.5ft 7s 6s 11 13 mph 1019.1mb 66f 66f
11:50 2.5ft 7s 5s 7 9 mph 1019.9mb 66f 66f
10:50 2.5ft 7s 5s 9
mph
1019.8mb 65f 66f
9:50 2.5ft 7s 5s 11 13 mph 1018.9mb 65f 65f
8:50 2.5ft 8s 6s 11 13 mph 1019.7mb 65f 65f
7:50 2.5ft 7s 6s 11 13 mph 1019.8mb 65f 64f
6:50 2.5ft 7s 6s 9 11 mph 1019.9mb 64f 63f
5:50 2.5ft 7s 6s 9
mph
1020.1mb 65f 62f
4:50 2.5ft 7s 6s 9 11 mph 1020.1mb 65f 62f
3:50 3ft 7s 6s 7 9 mph 1020.1mb 65f 61f
2:50 2.5ft 7s 6s 7
mph
1020.1mb 65f 61f
1:50 2.5ft 7s 6s 2 4 mph 1020.3mb 65f 61f
12:50 2.5ft 7s 6s 4
mph
1020.5mb 65f 61f
lun. 07/21 11:50 2.5ft 8s 6s 2
mph
1020.8mb 65f 62f
10:50 2.5ft 8s 6s 2 4 mph 1020.8mb 65f 62f
9:50 2.5ft 7s 6s 4
mph
1020.9mb 66f 64f
8:50 2.5ft 8s 6s 4
mph
1020.7mb 66f 64f
7:50 2.5ft 8s 6s  -  mph 1020.4mb 66f 65f
6:50 3ft 8s 6s  -  mph 1020.6mb 66f 65f
5:50 3ft 6s 6s  -  mph 1020.5mb 66f 65f
4:50 3ft 7s 6s  -  mph 1020.6mb 66f 65f
3:50 3ft 7s 6s  -  mph 1021.1mb 66f 64f
2:50 3ft 7s 6s 2 4 mph 1021.6mb 65f 64f
1:50 2.5ft 7s 6s 2 4 mph 1022.1mb 65f 64f
12:50 2.5ft 7s 6s 4 7 mph 1021.9mb 64f 64f
11:50 2.5ft 7s 5s 4 7 mph 1022.2mb 65f 64f
10:50 2ft 8s 5s 4 7 mph 1022.1mb 65f 63f
9:50 2ft 8s 4s 7 9 mph 1021.8mb 64f 63f
8:50  -   -   -  7 9 mph 1021.8mb 64f 63f
7:50 2.5ft 8s 4s 9 11 mph 1021.5mb 64f 63f
6:50 2.5ft 8s 4s 9 11 mph 1021.3mb 64f 63f
5:50 2.5ft 8s 5s 13 16 mph 1020.9mb 64f 63f
4:50 2.5ft 8s 5s 11 13 mph 1020.7mb 65f 63f
3:50 2.5ft 7s 5s 9 11 mph 1020.5mb 65f 63f
2:50 2.5ft 7s 6s 7 9 mph 1020.4mb 65f 64f
1:50 2.5ft 8s 6s 7 9 mph 1020.8mb 65f 64f
12:50 2.5ft 8s 5s 9 11 mph 1020.8mb 65f 64f
dim. 07/20 11:50 2.5ft 8s 5s 9 13 mph 1021mb 64f 64f
10:50 2ft 8s 5s 11 13 mph 1021mb 64f 64f
9:50 2ft 8s 5s 11 13 mph 1021.3mb 64f 64f
8:50 2ft 8s 5s 11 13 mph 1021.1mb 64f 64f
7:50 2ft 8s 4s 9
mph
1021.3mb 64f 64f
6:50 2ft 8s 5s 9
mph
1021.3mb 64f 64f
5:50 2ft 8s 5s 11
mph
1021.1mb 65f 64f
4:50 2.5ft 8s 5s 11 13 mph 1021.1mb 65f 64f
3:50 2.5ft 8s 6s 9 11 mph 1021.6mb 66f 64f
2:50 2.5ft 7s 6s 9 11 mph 1021.7mb 67f 65f
1:50 2.5ft 7s 7s 9
mph
1022mb 67f 65f
12:50 2.5ft 7s 7s 7 9 mph 1022.4mb 67f 65f
11:50 2ft 8s 7s 7 9 mph 1022.7mb 67f 65f
10:50 2.5ft 8s 7s 7
mph
1023.1mb 67f 66f
9:50 2.5ft 8s 7s 7 9 mph 1022.7mb 67f 66f
8:50 2ft 8s 7s  -  mph 1022.9mb 67f 66f
7:50 1.6ft 8s 7s  -  mph 1022.6mb 66f 67f
6:50 1.6ft 8s 6s  -  7 mph 1022.6mb 66f 66f
5:50 2ft 8s 7s 2 4 mph 1022.1mb 66f 65f
4:50 2.5ft 8s 6s 4
mph
1022.3mb 66f 65f